Stündliche Wetter Aalten

Heute, 21 Juni, Montag

Zeit Temperatur Niederschläge Wind Luftdruck Luftfeuchtigkeit
00:00 +15°C° 0.1 mm 6 m/S 752 mmHg 90%
01:00 +14°C° 0.4 mm 6 m/S 752 mmHg 92%
02:00 +14°C° 0.4 mm 6 m/S 752 mmHg 93%
03:00 +13°C° 0.4 mm 6 m/S 752 mmHg 94%
04:00 +14°C° 0.3 mm 6 m/S 752 mmHg 94%
05:00 +14°C° 0.3 mm 5 m/S 752 mmHg 94%
06:00 +14°C° 0.3 mm 5 m/S 752 mmHg 94%
07:00 +14°C° 0.1 mm 5 m/S 752 mmHg 94%
08:00 +14°C° 0.1 mm 5 m/S 752 mmHg 94%
09:00 +14°C° 0.1 mm 5 m/S 753 mmHg 94%
10:00 +13°C° 0.4 mm 5 m/S 753 mmHg 94%
11:00 +13°C° 0.4 mm 5 m/S 754 mmHg 95%
12:00 +13°C° 0.4 mm 5 m/S 754 mmHg 95%
13:00 +13°C° 0 mm 5 m/S 755 mmHg 92%
14:00 +14°C° 0 mm 5 m/S 755 mmHg 90%
15:00 +14°C° 0 mm 5 m/S 756 mmHg 87%
16:00 +14°C° 0 mm 5 m/S 756 mmHg 85%
17:00 +14°C° 0 mm 5 m/S 757 mmHg 83%
18:00 +14°C° 0 mm 4 m/S 757 mmHg 81%
19:00 +13°C° 0 mm 4 m/S 757 mmHg 84%
20:00 +12°C° 0 mm 4 m/S 758 mmHg 87%
21:00 +11°C° 0 mm 4 m/S 758 mmHg 90%
22:00 +11°C° 0 mm 3 m/S 758 mmHg 92%
23:00 +10°C° 0 mm 3 m/S 758 mmHg 94%

Morgen, 22 Juni, Dienstag

Zeit Temperatur Niederschläge Wind Luftdruck Luftfeuchtigkeit
00:00 +9°C° 0 mm 3 m/S 758 mmHg 96%
01:00 +9°C° 0 mm 3 m/S 758 mmHg 96%
02:00 +9°C° 0 mm 3 m/S 758 mmHg 95%
03:00 +9°C° 0 mm 3 m/S 759 mmHg 95%
04:00 +10°C° 0 mm 3 m/S 759 mmHg 91%
05:00 +11°C° 0 mm 4 m/S 759 mmHg 87%
06:00 +12°C° 0 mm 5 m/S 759 mmHg 83%
07:00 +13°C° 0 mm 5 m/S 759 mmHg 77%
08:00 +15°C° 0 mm 5 m/S 760 mmHg 71%
09:00 +16°C° 0 mm 5 m/S 760 mmHg 66%
10:00 +17°C° 0 mm 5 m/S 760 mmHg 63%
11:00 +17°C° 0 mm 5 m/S 760 mmHg 61%
12:00 +19°C° 0 mm 5 m/S 760 mmHg 59%
13:00 +19°C° 0 mm 4 m/S 760 mmHg 60%
14:00 +19°C° 0 mm 4 m/S 760 mmHg 60%
15:00 +19°C° 0 mm 4 m/S 760 mmHg 61%
16:00 +19°C° 0 mm 4 m/S 760 mmHg 63%
17:00 +17°C° 0 mm 5 m/S 760 mmHg 66%
18:00 +17°C° 0 mm 5 m/S 760 mmHg 69%
19:00 +16°C° 0 mm 5 m/S 760 mmHg 72%
20:00 +14°C° 0 mm 5 m/S 761 mmHg 74%
21:00 +13°C° 0 mm 5 m/S 761 mmHg 77%
22:00 +13°C° 0 mm 5 m/S 762 mmHg 78%
23:00 +12°C° 0 mm 4 m/S 762 mmHg 78%

übermorgen, 23 Juni, Mittwoch

Zeit Temperatur Niederschläge Wind Luftdruck Luftfeuchtigkeit
00:00 +12°C° 0 mm 4 m/S 762 mmHg 79%
01:00 +12°C° 0 mm 3 m/S 762 mmHg 79%
02:00 +12°C° 0 mm 3 m/S 762 mmHg 78%
03:00 +12°C° 0 mm 3 m/S 762 mmHg 78%
04:00 +12°C° 0 mm 3 m/S 762 mmHg 77%
05:00 +12°C° 0 mm 3 m/S 762 mmHg 76%
06:00 +12°C° 0 mm 3 m/S 763 mmHg 76%
07:00 +13°C° 0 mm 3 m/S 763 mmHg 71%
08:00 +14°C° 0 mm 3 m/S 763 mmHg 67%
09:00 +16°C° 0 mm 3 m/S 763 mmHg 63%
10:00 +17°C° 0 mm 3 m/S 763 mmHg 59%
11:00 +19°C° 0 mm 3 m/S 763 mmHg 56%
12:00 +20°C° 0 mm 3 m/S 763 mmHg 52%
13:00 +20°C° 0 mm 3 m/S 763 mmHg 52%
14:00 +21°C° 0 mm 3 m/S 763 mmHg 51%
15:00 +21°C° 0 mm 3 m/S 763 mmHg 51%
16:00 +21°C° 0 mm 3 m/S 763 mmHg 56%
17:00 +20°C° 0 mm 3 m/S 763 mmHg 62%
18:00 +19°C° 0 mm 4 m/S 762 mmHg 67%
19:00 +18°C° 0 mm 3 m/S 763 mmHg 76%
20:00 +16°C° 0 mm 3 m/S 763 mmHg 84%
21:00 +13°C° 0 mm 3 m/S 763 mmHg 93%
22:00 +13°C° 0 mm 3 m/S 763 mmHg 94%
23:00 +12°C° 0 mm 3 m/S 763 mmHg 95%

24 Juni, Donnerstag

Zeit Temperatur Niederschläge Wind Luftdruck Luftfeuchtigkeit
00:00 +12°C° 0 mm 2 m/S 763 mmHg 97%
01:00 +12°C° 0 mm 2 m/S 763 mmHg 97%
02:00 +12°C° 0 mm 2 m/S 763 mmHg 97%
03:00 +10°C° 0 mm 2 m/S 763 mmHg 97%
04:00 +12°C° 0 mm 2 m/S 763 mmHg 93%
05:00 +13°C° 0 mm 2 m/S 763 mmHg 88%
06:00 +14°C° 0 mm 2 m/S 763 mmHg 84%
07:00 +16°C° 0 mm 3 m/S 763 mmHg 78%
08:00 +18°C° 0 mm 3 m/S 763 mmHg 71%
09:00 +19°C° 0 mm 3 m/S 762 mmHg 65%
10:00 +20°C° 0 mm 3 m/S 762 mmHg 61%
11:00 +21°C° 0 mm 3 m/S 762 mmHg 57%
12:00 +22°C° 0 mm 3 m/S 762 mmHg 54%
13:00 +24°C° 0 mm 3 m/S 762 mmHg 53%
14:00 +24°C° 0 mm 3 m/S 761 mmHg 52%
15:00 +24°C° 0 mm 3 m/S 761 mmHg 51%
16:00 +22°C° 0 mm 3 m/S 761 mmHg 58%
17:00 +21°C° 0 mm 4 m/S 761 mmHg 65%
18:00 +20°C° 0 mm 4 m/S 761 mmHg 72%
19:00 +18°C° 0 mm 4 m/S 761 mmHg 79%
20:00 +17°C° 0 mm 4 m/S 762 mmHg 86%
21:00 +14°C° 0 mm 3 m/S 762 mmHg 94%
22:00 +13°C° 0 mm 3 m/S 762 mmHg 94%
23:00 +12°C° 0 mm 3 m/S 762 mmHg 95%

25 Juni, Freitag

Zeit Temperatur Niederschläge Wind Luftdruck Luftfeuchtigkeit
00:00 +13°C° 0 mm 2 m/S 762 mmHg 96%
01:00 +12°C° 0 mm 2 m/S 762 mmHg 95%
02:00 +12°C° 0 mm 2 m/S 762 mmHg 95%
03:00 +10°C° 0 mm 2 m/S 762 mmHg 95%
04:00 +13°C° 0 mm 2 m/S 762 mmHg 90%
05:00 +14°C° 0 mm 2 m/S 763 mmHg 86%
06:00 +15°C° 0 mm 2 m/S 763 mmHg 81%
07:00 +17°C° 0 mm 2 m/S 763 mmHg 75%
08:00 +18°C° 0 mm 2 m/S 763 mmHg 69%
09:00 +20°C° 0 mm 3 m/S 763 mmHg 62%
10:00 +21°C° 0 mm 3 m/S 763 mmHg 59%
11:00 +22°C° 0 mm 3 m/S 762 mmHg 57%
12:00 +22°C° 0 mm 3 m/S 762 mmHg 54%
13:00 +22°C° 0 mm 3 m/S 762 mmHg 55%
14:00 +22°C° 0 mm 3 m/S 762 mmHg 57%
15:00 +22°C° 0 mm 4 m/S 762 mmHg 59%
16:00 +22°C° 0 mm 4 m/S 762 mmHg 63%
17:00 +21°C° 0 mm 3 m/S 762 mmHg 67%
18:00 +20°C° 0 mm 3 m/S 762 mmHg 72%
19:00 +19°C° 0 mm 3 m/S 763 mmHg 78%
20:00 +17°C° 0 mm 3 m/S 763 mmHg 85%
21:00 +16°C° 0 mm 2 m/S 763 mmHg 91%
22:00 +15°C° 0 mm 2 m/S 763 mmHg 92%
23:00 +15°C° 0 mm 2 m/S 764 mmHg 94%

26 Juni, Samstag

Zeit Temperatur Niederschläge Wind Luftdruck Luftfeuchtigkeit
00:00 +14°C° 0 mm 2 m/S 764 mmHg 95%
01:00 +14°C° 0 mm 2 m/S 764 mmHg 95%
02:00 +14°C° 0 mm 2 m/S 764 mmHg 95%
03:00 +13°C° 0 mm 2 m/S 764 mmHg 95%
04:00 +14°C° 0 mm 2 m/S 764 mmHg 92%
05:00 +16°C° 0 mm 2 m/S 764 mmHg 88%
06:00 +17°C° 0 mm 2 m/S 764 mmHg 84%
07:00 +18°C° 0 mm 2 m/S 764 mmHg 78%
08:00 +20°C° 0 mm 3 m/S 764 mmHg 72%
09:00 +21°C° 0 mm 3 m/S 764 mmHg 65%
10:00 +22°C° 0 mm 3 m/S 764 mmHg 63%
11:00 +23°C° 0 mm 4 m/S 764 mmHg 61%
12:00 +23°C° 0 mm 4 m/S 764 mmHg 59%
13:00 +23°C° 0 mm 5 m/S 764 mmHg 58%
14:00 +23°C° 0 mm 5 m/S 764 mmHg 58%
15:00 +25°C° 0 mm 5 m/S 763 mmHg 57%
16:00 +23°C° 0 mm 5 m/S 763 mmHg 62%
17:00 +22°C° 0 mm 4 m/S 763 mmHg 66%
18:00 +21°C° 0 mm 4 m/S 764 mmHg 71%
19:00 +19°C° 0 mm 4 m/S 764 mmHg 78%
20:00 +17°C° 0 mm 3 m/S 764 mmHg 86%
21:00 +16°C° 0 mm 3 m/S 765 mmHg 93%
22:00 +14°C° 0 mm 3 m/S 765 mmHg 94%
23:00 +14°C° 0 mm 2 m/S 765 mmHg 95%
Mehr zeigen

Wir brauchen deine Erlaubnis

Meteoprog und unser Service Anbieter werden persönliche Daten aufbewahren, so wie Cookies, Geräte Bezeichnung oder ähnliche Technologien von deinem Gerät und Prozess, so wie Persönliche Daten Inhalte und Werbungen, genauso wie social Media und den Verkehr zu analysieren.

  • Aufbewahrung und/oder Zugang zu deiner Geräte Informationen.

    Cookies, Geräte Bezeichnung oder andere Informationen, können aufbewahrt oder Zugang zu deinem Gerät erhalten, für den Grund, der oben angegeben wird.

  • Personalisierte Werbung und Inhalte, Messungen, Einblick in das Publikum und Produkt Entwicklung.

    Werbungen und Inhalte können personalisiert werden, basierend auf ein Profil. Mehr Daten können besser personalisierte Werbungen und Inhalte hinzufügen. Werbung und Inhalte können gezeigt und gemessen werden. Einblicke über das Publikum, welche die Werbung gesehen haben und den Inhalt, können abgeleitet werden. So wie Daten können genutzt werden, um es zu verbessern oder die Benutzer Erfahrung zu verbessern das System und die Software.

Wenn du “Ich stimme zu” klickst, erlaubst du uns, die Cookies zu benutzen die Geräte Bezeichnung, den Web oder ähnliche Technologien zu benutzen. Deine Settings, können in deinem Gerät bei deinem Browser geändert werden.

Für den bestimmten Zweck, berechtigten Interessen beruhen darauf, mehr als auf den Inhalt. Du kannst mehr darüber in unseren Privaten und Cookie Politik lesen.